THOR ABLESTAR DEB, 3592

Orbit data source: Space-Track

THOR ABLESTAR DEB, 3592 is space debris in LEO originally from a launch on Thu, 24 Jun 1965 UTC launched from the Air Force Western Test Range (AFWTR). Debris objects in space refer to the collection of defunct objects orbiting the Earth. Examples of debris include non-operational satellites, rocket bodies, and fragments generated from explosions, collisions, or faulty payload assembly.

Loading next visibility...
Identifier
3592, 1965-048F
Orbit
LEO
Country
Flag of USUS
Related business
Manufacturer
Unknown
Mission
Spacecraft
Bus & Motor
Unknown
Mass
Unknown
Launch date (UTC)
1965-06-24 (61 years ago)
Launch vehicle
Unknown
Launch site
Air Force Western Test Range (AFWTR)
Object type
Payload
Rocket body
Debris
Shape & HBR
Unknown shape, 0.1 m
Radar Cross Section
Small (<0.1 m²)

Expand to show TLE details & history
Last TLE update: 5 hours ago

TLE from 5 hours ago
0 THOR ABLESTAR DEB
1  3592U 65048F   26125.88190992  .00000269  00000-0  32713-3 0  9990
2  3592  89.8725 288.2703 0062619  86.8133  76.4884 13.62696636 14193
Epoch: 2026-05-05T21:09Z
TLE epoch observation values (Epoch: 2026-05-05T21:09:57.017Z)
Latitude
15.97848°
Longitude
-73.00398°
Altitude
1,017.659 km
Speed
7.349 km/s
True Right ascension
07h 12m 56s
True Declination
15° 53' 27"
Sunlit
Object was in daylight at epoch
Visualization orbit readout
Latitude
Unknown
Longitude
Unknown
Altitude
Unknown
Speed
Unknown
Apparent Right ascension
Unknown
Apparent Declination
Unknown
Sunlit
N/A
Visualization observer readout
Local Sidereal Time
10:02:55
Azimuth
Unknown
Elevation
Unknown
Doppler factor
Unknown
Orbital elements
Apogee altitude
1,069.284 km
Perigee altitude
976.594 km
Semi-major axis
7,401.076 km
Eccentricity
0.00626
Inclination
89.8725°
RAAN
288.2703°
Arg. of periapsis
86.8133°
True anomaly
77.18736°
Mean anomaly
76.4884°
Eccentric anomaly
76.83775°
Mean motion
3.40879 °/min
Orbital period
105.61 mins
BSTAR
0.00032713
Loading maneuver chart data...
Computing Atmospheric mass density...

Documentation

Showing up to 5 results
|